• In Uzbekistan
  • List of Countries
  • For 7 days
  • Water Temperature
  • Satellite Maps
  • Weather Map
  • Weather Widgets
  • user-avatar
    Login

    Hourly Weather Nairobi

    Today, 27 June, Thursday

    Time Temperature Precipitation Wind Pressure Humidity
    00:00 +18°C° 0 mm 1 mps 624 mmHg 86%
    01:00 +16°C° 0 mm 1 mps 623 mmHg 87%
    02:00 +15°C° 0 mm 0 mps 623 mmHg 87%
    03:00 +15°C° 0 mm 0 mps 623 mmHg 88%
    04:00 +15°C° 0 mm 1 mps 623 mmHg 89%
    05:00 +15°C° 0 mm 1 mps 623 mmHg 91%
    06:00 +16°C° 0 mm 1 mps 624 mmHg 87%
    07:00 +18°C° 0 mm 1 mps 624 mmHg 83%
    08:00 +19°C° 0 mm 1 mps 625 mmHg 79%
    09:00 +20°C° 0 mm 1 mps 625 mmHg 76%
    10:00 +21°C° 0 mm 1 mps 625 mmHg 72%
    11:00 +21°C° 0 mm 2 mps 625 mmHg 69%
    12:00 +21°C° 0.2 mm 2 mps 624 mmHg 68%
    13:00 +21°C° 0.2 mm 2 mps 624 mmHg 68%
    14:00 +23°C° 0.2 mm 2 mps 623 mmHg 68%
    15:00 +21°C° 0.6 mm 2 mps 623 mmHg 72%
    16:00 +20°C° 0.6 mm 2 mps 623 mmHg 76%
    17:00 +20°C° 0.6 mm 2 mps 623 mmHg 80%
    18:00 +19°C° 0.4 mm 2 mps 623 mmHg 83%
    19:00 +18°C° 0.4 mm 2 mps 623 mmHg 86%
    20:00 +17°C° 0.4 mm 2 mps 623 mmHg 89%
    21:00 +18°C° 0 mm 1 mps 623 mmHg 89%
    22:00 +18°C° 0 mm 1 mps 623 mmHg 89%
    23:00 +15°C° 0 mm 0 mps 624 mmHg 90%

    Tomorrow, 28 June, Friday

    Time Temperature Precipitation Wind Pressure Humidity
    00:00 +15°C° 0 mm 0 mps 623 mmHg 90%
    01:00 +14°C° 0 mm 0 mps 622 mmHg 91%
    02:00 +14°C° 0 mm 0 mps 622 mmHg 92%
    03:00 +15°C° 0 mm 1 mps 622 mmHg 92%
    04:00 +15°C° 0 mm 1 mps 622 mmHg 93%
    05:00 +14°C° 0 mm 1 mps 622 mmHg 93%
    06:00 +16°C° 0 mm 1 mps 623 mmHg 89%
    07:00 +18°C° 0 mm 1 mps 624 mmHg 85%
    08:00 +19°C° 0 mm 2 mps 624 mmHg 80%
    09:00 +20°C° 0 mm 2 mps 625 mmHg 75%
    10:00 +21°C° 0 mm 2 mps 625 mmHg 70%
    11:00 +24°C° 0 mm 2 mps 625 mmHg 64%
    12:00 +24°C° 0.4 mm 2 mps 624 mmHg 64%
    13:00 +24°C° 0.4 mm 2 mps 624 mmHg 65%
    14:00 +24°C° 0.4 mm 3 mps 623 mmHg 65%
    15:00 +24°C° 0.8 mm 2 mps 623 mmHg 68%
    16:00 +23°C° 0.8 mm 2 mps 623 mmHg 72%
    17:00 +22°C° 0.8 mm 1 mps 622 mmHg 75%
    18:00 +20°C° 0.4 mm 2 mps 623 mmHg 78%
    19:00 +19°C° 0.4 mm 2 mps 623 mmHg 81%
    20:00 +18°C° 0.4 mm 2 mps 623 mmHg 84%
    21:00 +17°C° 0.1 mm 2 mps 623 mmHg 85%
    22:00 +17°C° 0.1 mm 2 mps 623 mmHg 86%
    23:00 +16°C° 0.1 mm 1 mps 623 mmHg 88%

    Day after tomorrow, 29 June, Saturday

    Time Temperature Precipitation Wind Pressure Humidity
    00:00 +16°C° 0 mm 1 mps 623 mmHg 89%
    01:00 +15°C° 0 mm 1 mps 622 mmHg 90%
    02:00 +14°C° 0 mm 0 mps 622 mmHg 91%
    03:00 +14°C° 0 mm 0 mps 622 mmHg 91%
    04:00 +15°C° 0 mm 1 mps 622 mmHg 92%
    05:00 +14°C° 0 mm 1 mps 622 mmHg 93%
    06:00 +15°C° 0 mm 1 mps 623 mmHg 89%
    07:00 +18°C° 0 mm 1 mps 624 mmHg 86%
    08:00 +18°C° 0 mm 2 mps 624 mmHg 83%
    09:00 +19°C° 0 mm 2 mps 625 mmHg 76%
    10:00 +21°C° 0 mm 2 mps 625 mmHg 70%
    11:00 +23°C° 0 mm 2 mps 625 mmHg 64%
    12:00 +22°C° 0.2 mm 3 mps 625 mmHg 65%
    13:00 +22°C° 0.2 mm 3 mps 624 mmHg 65%
    14:00 +22°C° 0.2 mm 3 mps 623 mmHg 66%
    15:00 +22°C° 0.3 mm 3 mps 623 mmHg 67%
    16:00 +21°C° 0.3 mm 2 mps 623 mmHg 69%
    17:00 +21°C° 0.3 mm 2 mps 623 mmHg 71%
    18:00 +20°C° 0 mm 2 mps 623 mmHg 73%
    19:00 +19°C° 0 mm 2 mps 623 mmHg 75%
    20:00 +18°C° 0 mm 2 mps 623 mmHg 77%
    21:00 +17°C° 0 mm 2 mps 623 mmHg 77%
    22:00 +17°C° 0 mm 2 mps 624 mmHg 77%
    23:00 +17°C° 0 mm 2 mps 624 mmHg 77%

    30 June, Sunday

    Time Temperature Precipitation Wind Pressure Humidity
    00:00 +16°C° 0 mm 1 mps 623 mmHg 79%
    01:00 +15°C° 0 mm 1 mps 623 mmHg 82%
    02:00 +14°C° 0 mm 1 mps 622 mmHg 85%
    03:00 +14°C° 0 mm 1 mps 622 mmHg 86%
    04:00 +14°C° 0 mm 1 mps 623 mmHg 87%
    05:00 +13°C° 0 mm 0 mps 623 mmHg 88%
    06:00 +15°C° 0 mm 1 mps 624 mmHg 82%
    07:00 +18°C° 0 mm 1 mps 625 mmHg 76%
    08:00 +18°C° 0 mm 2 mps 625 mmHg 70%
    09:00 +19°C° 0 mm 2 mps 626 mmHg 66%
    10:00 +21°C° 0 mm 2 mps 626 mmHg 62%
    11:00 +22°C° 0 mm 3 mps 626 mmHg 58%
    12:00 +22°C° 0 mm 3 mps 625 mmHg 58%
    13:00 +22°C° 0 mm 3 mps 625 mmHg 57%
    14:00 +24°C° 0 mm 3 mps 624 mmHg 57%
    15:00 +22°C° 0 mm 3 mps 624 mmHg 59%
    16:00 +23°C° 0 mm 2 mps 624 mmHg 61%
    17:00 +21°C° 0 mm 2 mps 623 mmHg 63%
    18:00 +20°C° 0 mm 2 mps 624 mmHg 65%
    19:00 +19°C° 0 mm 2 mps 624 mmHg 66%
    20:00 +18°C° 0 mm 2 mps 624 mmHg 67%
    21:00 +17°C° 0 mm 2 mps 624 mmHg 71%
    22:00 +17°C° 0 mm 2 mps 624 mmHg 75%
    23:00 +16°C° 0 mm 2 mps 624 mmHg 79%

    1 July, Monday

    Time Temperature Precipitation Wind Pressure Humidity
    00:00 +16°C° 0 mm 2 mps 624 mmHg 83%
    01:00 +16°C° 0 mm 1 mps 623 mmHg 86%
    02:00 +15°C° 0 mm 1 mps 623 mmHg 90%
    03:00 +15°C° 0 mm 1 mps 623 mmHg 91%
    04:00 +15°C° 0 mm 1 mps 623 mmHg 91%
    05:00 +15°C° 0 mm 1 mps 623 mmHg 92%
    06:00 +16°C° 0 mm 1 mps 624 mmHg 86%
    07:00 +17°C° 0 mm 2 mps 624 mmHg 80%
    08:00 +19°C° 0 mm 2 mps 625 mmHg 75%
    09:00 +20°C° 0 mm 2 mps 625 mmHg 69%
    10:00 +22°C° 0 mm 3 mps 625 mmHg 63%
    11:00 +24°C° 0 mm 3 mps 625 mmHg 56%
    12:00 +24°C° 0.2 mm 3 mps 625 mmHg 56%
    13:00 +24°C° 0.2 mm 3 mps 624 mmHg 56%
    14:00 +25°C° 0.2 mm 4 mps 624 mmHg 56%
    15:00 +24°C° 0.3 mm 3 mps 623 mmHg 60%
    16:00 +23°C° 0.3 mm 2 mps 623 mmHg 63%
    17:00 +21°C° 0.3 mm 2 mps 623 mmHg 67%
    18:00 +21°C° 0.1 mm 2 mps 623 mmHg 69%
    19:00 +20°C° 0.1 mm 2 mps 624 mmHg 72%
    20:00 +19°C° 0.1 mm 2 mps 624 mmHg 74%
    21:00 +18°C° 0.1 mm 2 mps 624 mmHg 77%
    22:00 +18°C° 0.1 mm 2 mps 624 mmHg 79%
    23:00 +17°C° 0.1 mm 2 mps 624 mmHg 82%

    2 July, Tuesday

    Time Temperature Precipitation Wind Pressure Humidity
    00:00 +17°C° 0 mm 2 mps 623 mmHg 85%
    01:00 +16°C° 0 mm 2 mps 623 mmHg 88%
    02:00 +16°C° 0 mm 1 mps 622 mmHg 91%
    03:00 +16°C° 0 mm 1 mps 623 mmHg 90%
    04:00 +16°C° 0 mm 1 mps 623 mmHg 89%
    05:00 +16°C° 0 mm 1 mps 623 mmHg 88%
    06:00 +18°C° 0 mm 1 mps 624 mmHg 86%
    07:00 +18°C° 0 mm 1 mps 624 mmHg 83%
    08:00 +19°C° 0 mm 1 mps 625 mmHg 80%
    09:00 +20°C° 0 mm 1 mps 625 mmHg 75%
    10:00 +20°C° 0 mm 2 mps 625 mmHg 70%
    11:00 +21°C° 0 mm 2 mps 625 mmHg 65%
    12:00 +23°C° 0.1 mm 2 mps 624 mmHg 63%
    13:00 +22°C° 0.1 mm 3 mps 624 mmHg 62%
    14:00 +24°C° 0.1 mm 3 mps 623 mmHg 61%
    15:00 +22°C° 0.4 mm 3 mps 623 mmHg 65%
    16:00 +21°C° 0.4 mm 3 mps 623 mmHg 69%
    17:00 +20°C° 0.4 mm 3 mps 622 mmHg 74%
    18:00 +20°C° 0.2 mm 2 mps 623 mmHg 76%
    19:00 +19°C° 0.2 mm 2 mps 623 mmHg 77%
    20:00 +18°C° 0.2 mm 2 mps 623 mmHg 79%
    21:00 +18°C° 0.1 mm 2 mps 623 mmHg 80%
    22:00 +18°C° 0.1 mm 2 mps 623 mmHg 81%
    23:00 +17°C° 0.1 mm 2 mps 624 mmHg 82%
    Show more